Location: Avoca
(45.7167°N, 74.7000°W)
Time: 15:48:06
(UTC+00:00)

BlueWalker 3 - Pass Details

Date: 03 December 2022
Orbit: 499 x 517 km, 53.2° (Epoch: 01 February)

Event Time Altitude Azimuth Distance (km) Brightness Sun altitude
Rises 22:03:31 0° 283° (WNW) 2,631 6.5 -8.3°
Maximum altitude 22:09:23 27° 356° (N) 1,013 3.3 -9.2°
Enters shadow 22:12:18 12° 52° (NE) 1,583 3.8 -9.7°
